| time (UTC) | temp F | wind direction | speed knots | gust knots | rain 1hr in | rain 24hr in | rain mn in | humidity % | barometer mb |
| 20260502180537 | 67 | 335 | 0.9 | 2.6 | 0.00 | 0.00 | 0.00 | 33 | 1020.3 |
| 20260502163530 | 62 | 27 | 1.7 | 3.5 | 0.00 | 0.00 | 0.00 | 42 | 1020.7 |
| 20260502162527 | 61 | 258 | 1.7 | 3.5 | 0.00 | 0.00 | 0.00 | 44 | 1020.6 |
| 20260502161524 | 60 | 35 | 0.9 | 2.6 | 0.00 | 0.00 | 0.00 | 46 | 1020.5 |
| 20260502160521 | 60 | 23 | 1.7 | 3.5 | 0.00 | 0.00 | 0.00 | 45 | 1020.6 |
| 20260502151528 | 56 | 12 | 0.9 | 1.7 | 0.00 | 0.00 | 0.00 | 46 | 1020.6 |
| 20260502150525 | 56 | 15 | 0.9 | 2.6 | 0.00 | 0.00 | 0.00 | 45 | 1020.7 |
| 20260502130529 | 42 | 349 | 0.9 | 1.7 | 0.00 | 0.00 | 0.00 | 61 | 1020.3 |
| 20260502123546 | 44 | 128 | 0.0 | 0.9 | 0.00 | 0.00 | 0.00 | 51 | 1020.1 |
| 20260502122538 | 43 | 129 | 0.0 | 0.9 | 0.00 | 0.00 | 0.00 | 53 | 1019.9 |
| 20260502121535 | 43 | 132 | 0.9 | 0.9 | 0.00 | 0.00 | 0.00 | 55 | 1019.9 |
| 20260502120538 | 43 | 130 | 0.9 | 1.7 | 0.00 | 0.00 | 0.00 | 54 | 1019.8 |
| 20260502115530 | 43 | 119 | 0.9 | 1.7 | 0.00 | 0.00 | 0.00 | 56 | 1019.8 |
| 20260502114527 | 43 | 115 | 0.9 | 1.7 | 0.00 | 0.00 | 0.00 | 57 | 1019.7 |
| 20260502113524 | 42 | 114 | 0.9 | 1.7 | 0.00 | 0.00 | 0.00 | 61 | 1019.8 |
| 20260502112541 | 43 | 113 | 0.0 | 0.0 | 0.00 | 0.00 | 0.00 | 61 | 1020.0 |
| 20260502111537 | 44 | 114 | 0.9 | 0.9 | 0.00 | 0.00 | 0.00 | 58 | 1019.9 |
| 20260502110536 | 44 | 115 | 0.9 | 0.9 | 0.00 | 0.00 | 0.00 | 57 | 1019.9 |
| 20260502105531 | 43 | 114 | 0.0 | 0.9 | 0.00 | 0.00 | 0.00 | 61 | 1019.9 |
| 20260502104529 | 43 | 115 | 0.9 | 0.9 | 0.00 | 0.00 | 0.00 | 62 | 1019.9 |
| 20260502103526 | 44 | 124 | 0.9 | 1.7 | 0.00 | 0.00 | 0.00 | 62 | 1020.0 |
| 20260502102523 | 44 | 128 | 0.0 | 0.9 | 0.00 | 0.00 | 0.00 | 61 | 1020.0 |
| 20260502101543 | 44 | 129 | 0.0 | 0.0 | 0.00 | 0.00 | 0.00 | 60 | 1020.0 |
| 20260502100537 | 44 | 128 | 0.0 | 0.9 | 0.00 | 0.00 | 0.00 | 60 | 1020.0 |
| 20260502091522 | 44 | 162 | 0.0 | 0.9 | 0.00 | 0.00 | 0.00 | 62 | 1019.8 |
| 20260502090539 | 43 | 189 | 0.0 | 1.7 | 0.00 | 0.00 | 0.00 | 67 | 1020.0 |
| 20260502071528 | 48 | 129 | 0.0 | 0.0 | 0.00 | 0.00 | 0.00 | 56 | 1019.7 |
| 20260502070525 | 49 | 129 | 0.0 | 0.9 | 0.00 | 0.00 | 0.00 | 54 | 1019.7 |
| 20260502065542 | 49 | 129 | 0.0 | 0.0 | 0.00 | 0.00 | 0.00 | 53 | 1019.6 |
| 20260502064539 | 50 | 131 | 0.9 | 0.9 | 0.00 | 0.00 | 0.00 | 50 | 1019.5 |
| 20260502063536 | 49 | 148 | 0.9 | 0.9 | 0.00 | 0.00 | 0.00 | 51 | 1019.5 |
| 20260502062533 | 50 | 152 | 0.9 | 0.9 | 0.00 | 0.00 | 0.00 | 51 | 1019.5 |
| 20260502061610 | 51 | 154 | 0.9 | 0.9 | 0.00 | 0.00 | 0.00 | 48 | 1019.5 |
| 20260502060528 | 51 | 159 | 0.9 | 1.7 | 0.00 | 0.00 | 0.00 | 49 | 1019.4 |
| 20260502055524 | 50 | 154 | 0.9 | 1.7 | 0.00 | 0.00 | 0.00 | 52 | 1019.4 |
| 20260502054522 | 50 | 138 | 0.9 | 1.7 | 0.00 | 0.00 | 0.00 | 53 | 1019.4 |
| 20260502053539 | 51 | 122 | 0.9 | 1.7 | 0.00 | 0.00 | 0.00 | 51 | 1019.2 |
| 20260502052537 | 52 | 166 | 0.0 | 0.9 | 0.00 | 0.00 | 0.00 | 50 | 1019.2 |
| 20260502051533 | 53 | 160 | 0.9 | 1.7 | 0.00 | 0.00 | 0.00 | 49 | 1019.3 |
| 20260502050531 | 52 | 158 | 0.9 | 1.7 | 0.00 | 0.00 | 0.00 | 51 | 1019.2 |
| 20260502045528 | 52 | 125 | 0.9 | 0.9 | 0.00 | 0.00 | 0.00 | 53 | 1019.1 |
| 20260502044525 | 52 | 107 | 0.9 | 1.7 | 0.00 | 0.00 | 0.00 | 53 | 1019.2 |
| 20260502043523 | 52 | 122 | 0.9 | 1.7 | 0.00 | 0.00 | 0.00 | 55 | 1019.1 |
| 20260502042540 | 52 | 92 | 0.9 | 1.7 | 0.00 | 0.00 | 0.00 | 56 | 1019.1 |
| 20260502041538 | 53 | 110 | 0.9 | 1.7 | 0.00 | 0.00 | 0.00 | 56 | 1019.1 |
| 20260502040534 | 53 | 161 | 0.9 | 0.9 | 0.00 | 0.00 | 0.00 | 54 | 1018.9 |
| 20260502035532 | 54 | 168 | 0.9 | 0.9 | 0.00 | 0.00 | 0.00 | 53 | 1018.8 |
| 20260502034529 | 55 | 177 | 0.0 | 0.9 | 0.00 | 0.00 | 0.00 | 50 | 1018.7 |
| 20260502033527 | 55 | 172 | 0.9 | 0.9 | 0.00 | 0.00 | 0.00 | 45 | 1018.6 |
| 20260502032524 | 56 | 149 | 0.0 | 0.9 | 0.00 | 0.00 | 0.00 | 45 | 1018.4 |
| 20260502031623 | 57 | 251 | 0.0 | 0.9 | 0.00 | 0.00 | 0.00 | 42 | 1018.2 |
| 20260502030540 | 57 | 251 | 0.0 | 0.0 | 0.00 | 0.00 | 0.00 | 41 | 1018.1 |
| 20260502025536 | 57 | 251 | 0.0 | 0.0 | 0.00 | 0.00 | 0.00 | 40 | 1017.9 |
| 20260502024533 | 58 | 0.0 | 0.0 | 0.00 | 0.00 | 0.00 | 38 | 1017.9 | |
| 20260502023550 | 59 | 251 | 0.0 | 0.9 | 0.00 | 0.00 | 0.00 | 36 | 1017.9 |
| 20260502022527 | 61 | 251 | 0.0 | 0.0 | 0.00 | 0.00 | 0.00 | 34 | 1017.8 |
| 20260502021524 | 62 | 251 | 0.0 | 0.9 | 0.00 | 0.00 | 0.00 | 31 | 1017.7 |
| 20260502020521 | 63 | 259 | 0.9 | 1.7 | 0.00 | 0.00 | 0.00 | 31 | 1017.7 |
| 20260502015539 | 64 | 258 | 0.9 | 2.6 | 0.00 | 0.00 | 0.00 | 30 | 1017.6 |
| 20260502014536 | 65 | 263 | 1.7 | 3.5 | 0.00 | 0.00 | 0.00 | 29 | 1017.6 |
| 20260502013533 | 65 | 257 | 1.7 | 3.5 | 0.00 | 0.00 | 0.00 | 27 | 1017.6 |
| 20260502012532 | 67 | 272 | 1.7 | 6.1 | 0.00 | 0.00 | 0.00 | 25 | 1017.5 |
| 20260502011528 | 68 | 275 | 1.7 | 3.5 | 0.00 | 0.00 | 0.00 | 25 | 1017.5 |
| 20260502010526 | 69 | 257 | 1.7 | 5.2 | 0.00 | 0.00 | 0.00 | 22 | 1017.5 |
| 20260502005523 | 70 | 271 | 1.7 | 3.5 | 0.00 | 0.00 | 0.00 | 23 | 1017.7 |
| 20260502004541 | 70 | 259 | 1.7 | 5.2 | 0.00 | 0.00 | 0.00 | 23 | 1017.6 |
| 20260502003538 | 70 | 283 | 1.7 | 3.5 | 0.00 | 0.00 | 0.00 | 21 | 1017.6 |
| 20260502002534 | 69 | 286 | 2.6 | 7.0 | 0.00 | 0.00 | 0.00 | 22 | 1017.6 |
| 20260502001532 | 70 | 267 | 2.6 | 6.1 | 0.00 | 0.00 | 0.00 | 22 | 1017.7 |
| 20260502000529 | 70 | 257 | 1.7 | 3.5 | 0.00 | 0.00 | 0.00 | 21 | 1017.7 |
| 20260501235526 | 70 | 349 | 2.6 | 6.1 | 0.00 | 0.00 | 0.00 | 21 | 1017.8 |
| 20260501234543 | 70 | 238 | 2.6 | 6.1 | 0.00 | 0.00 | 0.00 | 22 | 1017.7 |
| 20260501233541 | 70 | 281 | 2.6 | 5.2 | 0.00 | 0.00 | 0.00 | 22 | 1017.9 |
| 20260501232537 | 70 | 284 | 2.6 | 7.0 | 0.00 | 0.00 | 0.00 | 22 | 1018.0 |
| 20260501231534 | 70 | 276 | 2.6 | 7.0 | 0.00 | 0.00 | 0.00 | 22 | 1018.1 |
| 20260501230555 | 71 | 268 | 3.5 | 8.7 | 0.00 | 0.00 | 0.00 | 20 | 1018.1 |
| 20260501225529 | 71 | 298 | 2.6 | 6.1 | 0.00 | 0.00 | 0.00 | 20 | 1018.2 |
| 20260501224527 | 70 | 265 | 2.6 | 7.0 | 0.00 | 0.00 | 0.00 | 21 | 1018.4 |
| 20260501223524 | 70 | 279 | 3.5 | 6.1 | 0.00 | 0.00 | 0.00 | 21 | 1018.4 |
| 20260501222541 | 69 | 286 | 3.5 | 9.6 | 0.00 | 0.00 | 0.00 | 22 | 1018.6 |
| 20260501221538 | 69 | 324 | 3.5 | 7.8 | 0.00 | 0.00 | 0.00 | 23 | 1018.7 |
| 20260501220535 | 70 | 272 | 2.6 | 5.2 | 0.00 | 0.00 | 0.00 | 22 | 1018.8 |
| 20260501215553 | 71 | 260 | 1.7 | 3.5 | 0.00 | 0.00 | 0.00 | 21 | 1018.8 |
| 20260501214550 | 67 | 332 | 1.7 | 3.5 | 0.00 | 0.00 | 0.00 | 24 | 1019.0 |
| 20260501213527 | 69 | 4 | 3.5 | 7.0 | 0.00 | 0.00 | 0.00 | 23 | 1019.2 |
| 20260501212525 | 68 | 296 | 2.6 | 6.1 | 0.00 | 0.00 | 0.00 | 24 | 1019.1 |
| 20260501211522 | 68 | 243 | 2.6 | 7.8 | 0.00 | 0.00 | 0.00 | 26 | 1019.2 |
| 20260501210602 | 68 | 287 | 3.5 | 7.8 | 0.00 | 0.00 | 0.00 | 24 | 1019.4 |
| 20260501205539 | 68 | 303 | 2.6 | 6.1 | 0.00 | 0.00 | 0.00 | 24 | 1019.4 |
| 20260501204534 | 68 | 269 | 3.5 | 8.7 | 0.00 | 0.00 | 0.00 | 24 | 1019.4 |
| 20260501203531 | 67 | 290 | 2.6 | 7.0 | 0.00 | 0.00 | 0.00 | 23 | 1019.4 |
| 20260501202529 | 67 | 285 | 3.5 | 7.0 | 0.00 | 0.00 | 0.00 | 24 | 1019.5 |
| 20260501201526 | 66 | 273 | 3.5 | 9.6 | 0.00 | 0.00 | 0.00 | 25 | 1019.4 |
| 20260501200524 | 66 | 293 | 4.3 | 9.6 | 0.00 | 0.00 | 0.00 | 24 | 1019.6 |
| 20260501195541 | 65 | 279 | 3.5 | 7.0 | 0.00 | 0.00 | 0.00 | 25 | 1019.5 |
| 20260501194558 | 67 | 299 | 3.5 | 9.6 | 0.00 | 0.00 | 0.00 | 24 | 1019.6 |
| 20260501193536 | 65 | 253 | 2.6 | 6.1 | 0.00 | 0.00 | 0.00 | 25 | 1019.7 |
| 20260501192533 | 67 | 289 | 2.6 | 6.1 | 0.00 | 0.00 | 0.00 | 23 | 1019.8 |
| 20260501191530 | 65 | 301 | 2.6 | 7.8 | 0.00 | 0.00 | 0.00 | 25 | 1019.9 |
| 20260501190548 | 64 | 276 | 2.6 | 7.0 | 0.00 | 0.00 | 0.00 | 25 | 1020.0 |
| 20260501185525 | 65 | 282 | 2.6 | 7.0 | 0.00 | 0.00 | 0.00 | 25 | 1020.1 |
| 20260501184602 | 66 | 276 | 2.6 | 3.5 | 0.00 | 0.00 | 0.00 | 24 | 1020.2 |
| 20260501183542 | 64 | 276 | 2.6 | 6.1 | 0.00 | 0.00 | 0.00 | 25 | 1020.2 |
| 20260501182558 | 64 | 272 | 3.5 | 7.0 | 0.00 | 0.00 | 0.00 | 25 | 1020.2 |
| 20260501181535 | 63 | 18 | 3.5 | 6.1 | 0.00 | 0.00 | 0.00 | 24 | 1020.4 |